| time (UTC) | temp F | wind direction | speed knots | gust knots | rain 1hr in | rain 24hr in | rain mn in | humidity % | barometer mb |
| 20260505124602 | 60 | 87 | 0.0 | 2.6 | 0.00 | 0.00 | 0.00 | 97 | 1005.9 |
| 20260505123028 | 59 | 66 | 0.0 | 1.7 | 0.00 | 0.00 | 0.00 | 96 | 1005.7 |
| 20260505121601 | 59 | 72 | 0.0 | 2.6 | 0.00 | 0.00 | 0.00 | 96 | 1005.6 |
| 20260505120029 | 59 | 70 | 0.0 | 1.7 | 0.00 | 0.00 | 0.00 | 96 | 1005.6 |
| 20260505114559 | 59 | 38 | 0.0 | 4.3 | 0.00 | 0.00 | 0.00 | 96 | 1005.4 |
| 20260505113037 | 59 | 47 | 1.7 | 7.8 | 0.00 | 0.00 | 0.00 | 95 | 1004.8 |
| 20260505111556 | 60 | 187 | 0.0 | 1.7 | 0.00 | 0.00 | 0.00 | 95 | 1004.4 |
| 20260505101558 | 60 | 119 | 0.9 | 1.7 | 0.00 | 0.00 | 0.00 | 95 | 1004.5 |
| 20260505100024 | 60 | 169 | 2.6 | 4.3 | 0.00 | 0.00 | 0.00 | 95 | 1004.7 |
| 20260505094601 | 60 | 166 | 2.6 | 4.3 | 0.00 | 0.00 | 0.00 | 95 | 1004.8 |
| 20260505093032 | 60 | 210 | 2.6 | 7.0 | 0.00 | 0.00 | 0.00 | 94 | 1005.6 |
| 20260505091607 | 60 | 199 | 1.7 | 6.1 | 0.00 | 0.00 | 0.00 | 94 | 1005.5 |
| 20260505090028 | 60 | 220 | 0.0 | 3.5 | 0.00 | 0.00 | 0.00 | 93 | 1005.7 |
| 20260505084558 | 60 | 227 | 0.9 | 5.2 | 0.00 | 0.00 | 0.00 | 92 | 1005.7 |
| 20260505083019 | 60 | 240 | 0.9 | 4.3 | 0.00 | 0.00 | 0.00 | 90 | 1005.2 |
| 20260505081548 | 61 | 324 | 0.0 | 1.7 | 0.00 | 0.00 | 0.00 | 88 | 1005.8 |
| 20260505080024 | 62 | 230 | 0.9 | 6.1 | 0.00 | 0.00 | 0.00 | 83 | 1005.6 |
| 20260505074541 | 63 | 255 | 0.9 | 3.5 | 0.00 | 0.00 | 0.00 | 79 | 1004.7 |
| 20260505073008 | 64 | 199 | 0.9 | 3.5 | 0.00 | 0.00 | 0.00 | 75 | 1005.0 |
| 20260505071534 | 65 | 160 | 0.9 | 7.0 | 0.00 | 0.00 | 0.00 | 73 | 1004.8 |
| 20260505070005 | 65 | 164 | 0.9 | 6.1 | 0.00 | 0.00 | 0.00 | 73 | 1004.8 |
| 20260505064533 | 65 | 125 | 2.6 | 6.1 | 0.00 | 0.00 | 0.00 | 72 | 1005.3 |
| 20260505063003 | 65 | 141 | 2.6 | 7.0 | 0.00 | 0.00 | 0.00 | 72 | 1005.6 |
| 20260505061547 | 66 | 133 | 3.5 | 8.7 | 0.00 | 0.00 | 0.00 | 70 | 1005.9 |
| 20260505054541 | 66 | 161 | 3.5 | 7.8 | 0.00 | 0.00 | 0.00 | 70 | 1005.7 |
| 20260505053057 | 66 | 154 | 3.5 | 8.7 | 0.00 | 0.00 | 0.00 | 69 | 1005.5 |
| 20260505051523 | 66 | 132 | 2.6 | 7.0 | 0.00 | 0.00 | 0.00 | 69 | 1005.9 |
| 20260505041519 | 67 | 155 | 0.9 | 7.0 | 0.00 | 0.00 | 0.00 | 67 | 1006.5 |
| 20260505040059 | 68 | 133 | 1.7 | 6.1 | 0.00 | 0.00 | 0.00 | 66 | 1006.6 |
| 20260505034533 | 68 | 159 | 2.6 | 7.0 | 0.00 | 0.00 | 0.00 | 65 | 1006.7 |
| 20260505033100 | 69 | 165 | 2.6 | 6.1 | 0.00 | 0.00 | 0.00 | 64 | 1006.8 |
| 20260505031520 | 69 | 165 | 3.5 | 6.1 | 0.00 | 0.00 | 0.00 | 62 | 1006.9 |
| 20260505030048 | 70 | 165 | 4.3 | 7.8 | 0.00 | 0.00 | 0.00 | 61 | 1006.8 |
| 20260505024518 | 70 | 152 | 4.3 | 8.7 | 0.00 | 0.00 | 0.00 | 61 | 1006.7 |
| 20260505023050 | 70 | 359 | 3.5 | 7.8 | 0.00 | 0.00 | 0.00 | 61 | 1006.3 |
| 20260505021518 | 71 | 197 | 4.3 | 7.8 | 0.00 | 0.00 | 0.00 | 60 | 1005.9 |
| 20260505020050 | 71 | 145 | 5.2 | 7.8 | 0.00 | 0.00 | 0.00 | 59 | 1005.8 |
| 20260505014518 | 72 | 180 | 4.3 | 8.7 | 0.00 | 0.00 | 0.00 | 58 | 1005.6 |
| 20260505013053 | 73 | 359 | 3.5 | 5.2 | 0.00 | 0.00 | 0.00 | 56 | 1005.4 |
| 20260505011525 | 73 | 158 | 3.5 | 7.8 | 0.00 | 0.00 | 0.00 | 55 | 1005.3 |
| 20260505010106 | 74 | 180 | 3.5 | 7.0 | 0.00 | 0.00 | 0.00 | 54 | 1004.8 |
| 20260505004531 | 74 | 359 | 2.6 | 7.8 | 0.00 | 0.00 | 0.00 | 53 | 1004.6 |
| 20260505003100 | 75 | 359 | 3.5 | 7.0 | 0.00 | 0.00 | 0.00 | 52 | 1004.5 |
| 20260505001533 | 76 | 359 | 2.6 | 8.7 | 0.00 | 0.00 | 0.00 | 50 | 1004.5 |
| 20260505000003 | 77 | 359 | 3.5 | 10.4 | 0.00 | 0.00 | 0.00 | 48 | 1004.3 |
| 20260504234535 | 77 | 359 | 0.0 | 13.0 | 0.00 | 0.00 | 0.00 | 46 | 1004.4 |
| 20260504233004 | 78 | 0.0 | 13.9 | 0.00 | 0.00 | 0.00 | 46 | 1004.6 | |
| 20260504231533 | 79 | 359 | 5.2 | 9.6 | 0.00 | 0.00 | 0.00 | 45 | 1004.6 |
| 20260504230001 | 79 | 359 | 7.0 | 13.0 | 0.00 | 0.00 | 0.00 | 44 | 1004.7 |
| 20260504224536 | 79 | 359 | 7.8 | 15.6 | 0.00 | 0.00 | 0.00 | 44 | 1004.8 |
| 20260504223002 | 80 | 359 | 8.7 | 15.6 | 0.00 | 0.00 | 0.00 | 43 | 1004.9 |
| 20260504221533 | 80 | 359 | 6.1 | 20.0 | 0.00 | 0.00 | 0.00 | 41 | 1005.0 |
| 20260504220107 | 81 | 217 | 7.8 | 15.6 | 0.00 | 0.00 | 0.00 | 41 | 1005.0 |
| 20260504214530 | 80 | 359 | 6.1 | 22.6 | 0.00 | 0.00 | 0.00 | 42 | 1004.9 |
| 20260504213109 | 81 | 230 | 7.0 | 15.6 | 0.00 | 0.00 | 0.00 | 41 | 1005.2 |
| 20260504211536 | 81 | 177 | 7.8 | 12.2 | 0.00 | 0.00 | 0.00 | 41 | 1005.2 |
| 20260504210056 | 81 | 359 | 7.8 | 19.1 | 0.00 | 0.00 | 0.00 | 41 | 1005.5 |
| 20260504204535 | 81 | 359 | 7.0 | 20.9 | 0.00 | 0.00 | 0.00 | 40 | 1005.6 |
| 20260504203051 | 81 | 359 | 6.1 | 13.9 | 0.00 | 0.00 | 0.00 | 42 | 1005.8 |
| 20260504201519 | 80 | 359 | 11.3 | 20.0 | 0.00 | 0.00 | 0.00 | 41 | 1006.0 |
| 20260504200052 | 80 | 359 | 7.8 | 20.9 | 0.00 | 0.00 | 0.00 | 42 | 1005.9 |
| 20260504194517 | 80 | 359 | 4.3 | 19.1 | 0.00 | 0.00 | 0.00 | 44 | 1006.2 |
| 20260504193100 | 80 | 359 | 8.7 | 17.4 | 0.00 | 0.00 | 0.00 | 43 | 1006.3 |
| 20260504191515 | 79 | 359 | 10.4 | 21.7 | 0.00 | 0.00 | 0.00 | 43 | 1006.5 |
| 20260504190049 | 80 | 359 | 6.1 | 13.9 | 0.00 | 0.00 | 0.00 | 44 | 1006.5 |
| 20260504184510 | 79 | 359 | 5.2 | 19.1 | 0.00 | 0.00 | 0.00 | 45 | 1006.7 |
| 20260504183055 | 79 | 359 | 7.0 | 21.7 | 0.00 | 0.00 | 0.00 | 45 | 1006.8 |
| 20260504181516 | 79 | 359 | 10.4 | 18.2 | 0.00 | 0.00 | 0.00 | 44 | 1006.9 |
| 20260504180107 | 79 | 359 | 7.0 | 16.5 | 0.00 | 0.00 | 0.00 | 44 | 1007.0 |
| 20260504174506 | 78 | 359 | 8.7 | 22.6 | 0.00 | 0.00 | 0.00 | 44 | 1007.2 |
| 20260504173035 | 78 | 359 | 9.6 | 20.9 | 0.00 | 0.00 | 0.00 | 44 | 1007.2 |
| 20260504171507 | 77 | 359 | 6.1 | 23.5 | 0.00 | 0.00 | 0.00 | 45 | 1007.2 |